Location: Unspecified
(58.7730°N, 5.8460°E)
Time: 09:09:46
(UTC+01:00)

Resurs 1-4 Rocket - Visible Passes

Search period start: 04 December 2016 00:00
Search period end: 14 December 2016 00:00
Orbit: 799 x 814 km, 98.5° (Epoch: 02 December)

Date Brightness Start Highest point End Pass type
(mag) Time Alt. Az. Time Alt. Az. Time Alt. Az.
04 Dec 4.9 03:10:58 10° NNE 03:11:08 11° NNE 03:11:08 11° NNE visible
04 Dec 4.2 04:51:05 10° N 04:52:12 16° N 04:52:12 16° N visible
04 Dec 4.1 06:32:11 10° N 06:33:17 12° NNW 06:33:17 12° NNW visible
05 Dec 4.4 04:26:23 10° NNE 04:27:18 15° N 04:27:18 15° N visible
05 Dec 4.1 06:07:09 10° N 06:08:23 14° NNW 06:08:23 14° NNW visible
06 Dec 4.6 04:01:44 10° NNE 04:02:23 14° NNE 04:02:23 14° NNE visible
06 Dec 4.1 05:42:17 10° N 05:43:28 15° N 05:43:28 15° N visible
07 Dec 4.8 03:37:09 10° NNE 03:37:29 12° NNE 03:37:29 12° NNE visible
07 Dec 4.2 05:17:29 10° N 05:18:34 15° N 05:18:34 15° N visible
07 Dec 4.2 06:59:37 10° NNW 06:59:38 10° NNW 06:59:38 10° NNW visible
08 Dec 4.3 04:52:44 10° N 04:53:39 15° N 04:53:39 15° N visible
08 Dec 4.1 06:33:53 10° N 06:34:44 12° NNW 06:34:44 12° NNW visible
09 Dec 4.5 04:28:02 10° NNE 04:28:45 14° N 04:28:45 14° N visible
09 Dec 4.1 06:08:50 10° N 06:09:50 13° NNW 06:09:50 13° NNW visible
10 Dec 4.7 04:03:24 10° NNE 04:03:52 13° NNE 04:03:52 13° NNE visible
10 Dec 4.2 05:43:57 10° N 05:44:56 14° N 05:44:56 14° N visible
11 Dec 4.9 03:38:48 10° NNE 03:38:58 11° NNE 03:38:58 11° NNE visible
11 Dec 4.3 05:19:09 10° N 05:20:02 14° N 05:20:02 14° N visible
12 Dec 4.4 04:54:24 10° N 04:55:09 14° N 04:55:09 14° N visible
12 Dec 4.2 06:35:35 10° N 06:36:14 11° NNW 06:36:14 11° NNW visible
13 Dec 4.5 04:29:42 10° N 04:30:16 13° N 04:30:16 13° N visible
13 Dec 4.2 06:10:31 10° N 06:11:20 12° NNW 06:11:20 12° NNW visible
